GW2225 Weather Reports


time (UTC)temp
C
wind
direction
speed
KPH
gust
KPH
rain 1hr
cm
rain 24hr
cm
rain mn
cm
humidity
%
barometer
mb
20260508203059 22 202 4.8 6.4 0.00 0.00 0.00 40 1013.5
20260508201538 21 255 0.0 4.8 0.00 0.00 0.00 43 1014.0
20260508200043 21 270 0.0 4.8 0.00 0.00 0.00 39 1014.5
20260508194533 21 216 0.0 3.2 0.00 0.00 0.00 38 1014.8
20260508193030 22 176 0.0 3.2 0.00 0.00 0.00 40 1014.9
20260508191528 21 105 0.0 1.6 0.00 0.00 0.00 41 1015.1
20260508190023 20 316 0.0 4.8 0.00 0.00 0.00 42 1015.6
20260508184525 20 186 1.6 6.4 0.00 0.00 0.00 43 1015.7
20260508183020 20 203 0.0 6.4 0.00 0.00 0.00 55 1015.7
20260508181519 20 4 0.0 4.8 0.00 0.00 0.00 49 1016.0
20260508180015 20 333 0.0 4.8 0.00 0.00 0.00 51 1016.0
20260508174514 19 266 3.2 6.4 0.00 0.00 0.00 50 1016.3
20260508173011 18 127 1.6 8.0 0.00 0.00 0.00 51 1016.8
20260508171511 18 89 0.0 6.4 0.00 0.00 0.00 61 1017.3
20260508170007 18 192 0.0 4.8 0.00 0.00 0.00 54 1017.5
20260508164511 17 278 0.0 8.0 0.00 0.00 0.00 57 1017.8
20260508163057 18 274 0.0 3.2 0.00 0.00 0.00 60 1018.0
20260508161548 16 270 0.0 3.2 0.00 0.00 0.00 63 1018.1
20260508160044 16 56 0.0 3.2 0.00 0.00 0.00 65 1018.5
20260508154543 16 276 0.0 6.4 0.00 0.05 0.00 68 1018.6
20260508153040 15 342 0.0 3.2 0.00 0.05 0.00 71 1018.7
20260508151536 14 347 0.0 1.6 0.00 0.05 0.00 74 1018.9
20260508150039 13 305 0.0 1.6 0.00 0.05 0.00 88 1019.1
20260508144526 12 236 0.0 1.6 0.00 0.05 0.00 92 1019.1
20260508143022 11 312 0.0 1.6 0.00 0.05 0.00 95 1019.0
20260508141520 10 248 0.0 0.0 0.00 0.05 0.00 95 1019.1
20260508140018 10 136 0.0 0.0 0.00 0.05 0.00 97 1019.1
20260508134516 8 103 0.0 0.0 0.00 0.08 0.00 97 1019.1
20260508133017 8 79 0.0 0.0 0.00 0.08 0.00 96 1019.2
20260508131517 7 8 0.0 0.0 0.00 0.08 0.00 97 1019.0
20260508130006 7 120 0.0 1.6 0.00 0.08 0.00 96 1019.1
20260508124505 6 6 0.0 1.6 0.00 0.10 0.00 96 1019.0
20260508123103 6 69 0.0 1.6 0.00 0.10 0.00 96 1018.9
20260508121530 6 69 0.0 1.6 0.00 0.10 0.00 96 1018.8
20260508120027 5 113 0.0 1.6 0.00 0.10 0.00 96 1018.6
20260508114527 5 124 0.0 0.0 0.00 0.10 0.00 96 1018.4
20260508113026 5 225 0.0 0.0 0.00 0.10 0.00 96 1018.4
20260508111524 4 229 0.0 0.0 0.00 0.10 0.00 96 1017.9
20260508110021 4 229 0.0 0.0 0.00 0.10 0.00 96 1017.6
20260508104532 4 229 0.0 0.0 0.00 0.13 0.00 96 1017.5
20260508103023 4 229 0.0 0.0 0.00 0.13 0.00 96 1017.2
20260508101517 4 229 0.0 0.0 0.00 0.13 0.00 96 1017.0
20260508100017 4 229 0.0 0.0 0.00 0.13 0.00 95 1016.9
20260508094513 4 229 0.0 0.0 0.00 0.15 0.00 95 1016.8
20260508093012 5 229 0.0 0.0 0.00 0.15 0.00 96 1016.8
20260508091510 5 229 0.0 0.0 0.00 0.15 0.00 96 1016.8
20260508090010 5 229 0.0 0.0 0.00 0.15 0.00 95 1016.7
20260508084506 5 229 0.0 0.0 0.00 0.15 0.00 95 1016.5
20260508083006 6 229 0.0 0.0 0.00 0.15 0.00 96 1016.4
20260508081506 6 229 0.0 0.0 0.00 0.15 0.00 96 1016.4
20260508080111 6 229 0.0 0.0 0.00 0.15 0.00 96 1016.2
20260508074538 6 229 0.0 0.0 0.00 0.18 0.00 96 1016.3
20260508073035 6 229 0.0 0.0 0.00 0.18 0.00 96 1016.3
20260508071534 6 229 0.0 0.0 0.00 0.18 0.00 95 1016.3
20260508070056 7 229 0.0 0.0 0.00 0.18 0.00 96 1016.4
20260508064534 7 229 0.0 0.0 0.00 0.30 0.00 96 1016.4
20260508063030 7 229 0.0 0.0 0.00 0.30 0.00 96 1016.4
20260508061527 7 229 0.0 0.0 0.00 0.30 0.00 96 1016.2
20260508060025 8 229 0.0 0.0 0.00 0.30 0.00 96 1016.4
20260508054523 8 229 0.0 0.0 0.00 0.30 0.00 96 1016.4
20260508053021 8 229 0.0 0.0 0.00 0.30 0.00 96 1016.4
20260508051520 8 229 0.0 0.0 0.00 0.30 0.00 96 1016.2
20260508050023 8 229 0.0 0.0 0.00 0.30 0.00 96 1016.4
20260508044507 8 229 0.0 0.0 0.00 0.30 0.00 96 1016.2
20260508043103 8 229 0.0 0.0 0.00 0.30 0.00 95 1016.0
20260508041535 8 229 0.0 0.0 0.00 0.30 0.00 95 1015.7
20260508040031 8 229 0.0 0.0 0.00 0.30 0.00 96 1015.4
20260508034529 8 229 0.0 0.0 0.00 0.30 0.30 95 1015.4
20260508033031 9 229 0.0 0.0 0.00 0.30 0.30 95 1015.6
20260508031526 9 229 0.0 0.0 0.00 0.30 0.30 95 1015.6
20260508030033 9 229 0.0 0.0 0.00 0.30 0.30 94 1015.4
20260508024523 10 229 0.0 0.0 0.00 0.30 0.30 94 1015.0
20260508023020 10 229 0.0 0.0 0.00 0.30 0.30 94 1014.9
20260508021518 10 229 0.0 0.0 0.00 0.30 0.30 94 1014.8
20260508020015 10 231 0.0 0.0 0.00 0.30 0.30 93 1014.6
20260508014514 10 255 0.0 1.6 0.00 0.38 0.30 93 1014.3
20260508013011 10 155 0.0 0.0 0.00 0.38 0.30 93 1014.0
20260508011508 11 155 0.0 0.0 0.00 0.38 0.30 91 1013.6
20260508010006 11 155 0.0 0.0 0.00 0.38 0.30 91 1013.5
20260508004507 11 155 0.0 3.2 0.00 0.61 0.30 90 1013.3
20260508003056 11 193 0.0 3.2 0.00 0.61 0.30 89 1013.2
20260508001515 12 120 0.0 4.8 0.00 0.61 0.30 88 1013.0
20260508000014 12 109 0.0 4.8 0.00 0.61 0.30 87 1013.1
20260507234514 12 207 0.0 3.2 0.00 0.61 0.30 86 1013.1
20260507233012 13 203 0.0 6.4 0.00 0.61 0.30 85 1013.1
20260507231517 13 123 0.0 8.0 0.00 0.61 0.30 84 1013.2
20260507230010 13 140 0.0 4.8 0.00 0.61 0.30 83 1013.2
20260507224510 13 118 1.6 4.8 0.00 0.61 0.30 82 1013.2
20260507223009 13 126 0.0 3.2 0.00 0.61 0.30 82 1013.3
20260507221509 13 212 0.0 0.0 0.00 0.61 0.30 82 1013.1
20260507220009 13 215 0.0 3.2 0.00 0.61 0.30 82 1013.1
20260507214507 13 120 0.0 3.2 0.00 0.61 0.30 80 1013.0
20260507213010 14 191 0.0 0.0 0.00 0.61 0.30 79 1012.6
20260507211507 15 189 0.0 0.0 0.00 0.61 0.30 78 1012.6
20260507210010 15 131 0.0 1.6 0.00 0.61 0.30 78 1012.5
20260507204508 14 184 0.0 3.2 0.00 0.61 0.30 83 1012.5